This is the latest recevied weather packets stored in our database for station/object IZ5MMH-1. If no packets are shown the sender has not sent any weather packets the latest 10 day(s).
| Time | Temp. | Humidity | Pressure | Rain* | Wind** | Luminosity | Snow |
|---|---|---|---|---|---|---|---|
| 1787877895 | 26.67° C | 73% | 1017.7 hPa | - | - | - | - |
| 1787877295 | 27.22° C | 72% | 1017.5 hPa | - | - | - | - |
| 1787876696 | 27.22° C | 73% | 1017.5 hPa | - | - | - | - |
| 1787876095 | 27.22° C | 73% | 1017.4 hPa | - | - | - | - |
| 1787875495 | 27.22° C | 72% | 1017.5 hPa | - | - | - | - |
| 1787874895 | 27.22° C | 72% | 1017.6 hPa | - | - | - | - |
| 1787874295 | 27.22° C | 72% | 1017.6 hPa | - | - | - | - |
| 1787873694 | 27.78° C | 71% | 1017.9 hPa | - | - | - | - |
| 1787873096 | 27.78° C | 72% | 1018.1 hPa | - | - | - | - |
| 1787872495 | 27.78° C | 72% | 1018 hPa | - | - | - | - |
| 1787871894 | 27.78° C | 75% | 1018 hPa | - | - | - | - |
| 1787871294 | 27.78° C | 76% | 1018.4 hPa | - | - | - | - |
| 1787870695 | 27.78° C | 76% | 1018.9 hPa | - | - | - | - |
| 1787870094 | 27.78° C | 72% | 1019.2 hPa | - | - | - | - |
| 1787869495 | 27.78° C | 72% | 1019.2 hPa | - | - | - | - |
| 1787868895 | 27.78° C | 72% | 1018.4 hPa | - | - | - | - |
| 1787868294 | 27.78° C | 75% | 1017.8 hPa | - | - | - | - |
| 1787867695 | 27.78° C | 74% | 1018.8 hPa | - | - | - | - |
| 1787867094 | 27.78° C | 71% | 1018.4 hPa | - | - | - | - |
| 1787866494 | 27.78° C | 70% | 1018.1 hPa | - | - | - | - |
| 1787865895 | 27.78° C | 74% | 1018.2 hPa | - | - | - | - |
| 1787865294 | 27.78° C | 70% | 1017.9 hPa | - | - | - | - |
| 1787864695 | 27.78° C | 70% | 1017.6 hPa | - | - | - | - |
| 1787864095 | 27.78° C | 72% | 1017.7 hPa | - | - | - | - |
| 1787863494 | 27.78° C | 69% | 1017.5 hPa | - | - | - | - |
* Rain since midnight (hover to see other rain measurements)
** Current wind speed in m/s (hover to see current wind gust speed)